[[{"header":{"parameterUnit":"m.s-1","parameterCategory":1,"la1":30.2991,"la2":30.254,"lo1":-89.0895,"lo2":-89.0444,"dy":0.0017,"dx":0.0017,"nx":28,"ny":28,"refTime":"2025-04-05T21:00:00:Z","depth":0,"parameterNumber":2,"parameterNumberName":"U-component_of_WINDS"},"data":[0,0,0,0,0,0,0,0,0,0,0,0,0,0,0,0,0,0,0,0,0,0,0,0,0,0,0,0,0,0,0,0,0,0,0,0,0,0,0,0,0,0,0,0,0,0,0,0,0,0,0,0,0,0,0,0,0,0,2.8062,2.8061,0,2.7953,2.7952,2.7951,2.7863,2.7862,2.7861,2.786,2.7743,2.7741,2.7739,0,0,0,0,0,0,0,0,0,0,0,0,0,2.819,2.8188,2.8062,2.8061,2.8059,2.7954,2.7952,2.7951,2.7863,2.7862,2.7861,2.786,2.7744,2.7741,2.7739,0,0,0,0,0,0,0,0,0,0,0,0,0,2.8113,2.8187,2.8062,2.8003,2.7997,2.7954,2.7952,2.795,2.7863,2.7862,2.786,2.7859,2.7745,2.7742,2.7738,2.7744,0,0,2.7728,2.7726,0,0,0,0,0,0,0,0,2.8117,2.8108,2.8013,2.8007,2.8,2.792,2.7954,2.7881,2.7863,2.7914,2.786,2.7858,2.7803,2.7795,2.7777,2.7739,2.7734,2.7728,2.7725,2.7724,2.7723,0,0,0,0,0,0,0,2.8123,2.8112,2.8019,2.8012,2.8004,2.798,2.7968,2.794,2.7867,2.7909,2.7902,2.7891,2.7799,2.7781,2.7774,2.7732,2.7728,2.7725,2.7722,2.7721,2.7693,2.7695,0,0,0,0,0,0,2.8138,2.8118,2.8022,2.8016,2.8057,2.7979,2.7965,2.7947,2.7867,2.7854,2.7892,2.7887,2.7787,2.7778,2.7769,2.7771,2.7724,2.7721,2.7719,2.7692,2.7694,2.7695,0,0,0,0,0,0,2.8141,2.813,2.8027,2.8065,2.805,2.7979,2.7959,2.7946,2.7927,2.7854,2.784,2.7887,2.7786,2.7774,2.7751,2.7766,2.7719,2.7716,2.7691,2.7693,2.7694,2.7775,0,0,0,0,0,0,2.8145,2.8132,2.8134,2.8066,2.8048,2.8012,2.7959,2.7944,2.7922,2.7915,2.7846,2.7833,2.7784,2.7757,2.7748,2.776,2.7714,2.7689,2.7692,2.7694,2.777,2.7779,2.7787,0,0,0,0,0,2.815,2.816,2.8135,2.8124,2.805,2.8013,2.8003,2.7947,2.7924,2.7925,2.7878,2.7835,2.7766,2.7756,2.7745,2.7756,2.7688,2.7691,2.7694,2.7767,2.7777,2.7786,0,0,0,0,0,0,2.8229,2.8149,2.8121,2.8109,2.8069,2.7998,2.7998,2.796,2.7925,2.7919,2.785,2.7835,2.782,2.7786,2.7775,2.7758,2.7721,2.7722,2.7781,2.779,2.7798,2.7806,2.7711,0,0,0,0,0,2.8246,2.8225,2.8155,2.8151,2.8133,2.807,2.8051,2.8013,2.7967,2.7949,2.7901,2.7857,2.7826,2.7806,2.7773,2.7766,2.7749,2.7768,2.7776,2.7783,2.7784,2.7778,2.7786,2.7705,2.7705,2.7705,0,0,2.8279,2.8233,2.8223,2.8166,2.813,2.8109,2.8055,2.8034,2.8017,2.7945,2.7921,2.7885,2.7832,2.7818,2.7808,2.7788,2.7803,2.7787,2.7793,2.779,2.7782,2.779,2.7797,2.7707,2.7706,2.7706,0,0,2.8328,2.8291,2.8284,2.825,2.8198,2.8156,2.8155,2.809,2.8064,2.804,2.7986,2.7964,2.7911,2.7876,2.7851,2.789,2.7848,2.7881,2.7922,2.7917,2.7924,2.7929,2.7942,2.7948,2.7882,2.7883,2.7883,0,2.8375,2.8341,2.8285,2.8268,2.8244,2.8181,2.8173,2.8142,2.8081,2.8066,2.8045,2.7978,2.7938,2.7915,2.7925,2.7907,2.7902,2.7887,2.7928,2.7932,2.7936,2.7948,2.7954,2.7887,2.7886,2.7886,2.7885,0,2.8402,2.8379,2.838,2.8325,2.8302,2.8289,2.823,2.8213,2.8177,2.8137,2.8114,2.8064,2.802,2.8012,2.7975,2.7984,2.7973,2.7941,2.7902,2.7949,2.7959,2.7964,2.7893,2.7891,2.789,2.7889,0,0,2.8495,2.8411,2.8412,2.8387,2.8326,2.8307,2.8292,2.8251,2.8238,2.8198,2.8183,2.8142,2.8112,2.8084,2.8043,2.8039,2.8073,2.8007,2.8005,2.8021,2.8079,2.8103,2.8109,2.8047,2.8047,2.8048,2.8084,0,2.8533,2.8504,2.8454,2.844,2.8419,2.836,2.8347,2.8308,2.8271,2.8246,2.8204,2.8176,2.8139,2.8122,2.8116,2.8071,2.8084,2.8067,2.8031,2.803,2.8045,2.8115,2.8139,2.8175,2.8087,2.8088,2.8088,0,2.8573,2.854,2.8525,2.8467,2.8456,2.8446,2.8405,2.8383,2.8337,2.831,2.8281,2.8237,2.8217,2.8184,2.8156,2.8146,2.8128,2.8104,2.8104,2.8097,2.8061,2.8109,2.8185,2.819,2.8094,2.8094,2.8093,0,2.8643,2.8594,2.8579,2.8559,2.8491,2.8485,2.8456,2.8409,2.8388,2.8353,2.8338,2.83,2.8279,2.825,2.8198,2.8178,2.8175,2.8137,2.8151,2.8153,2.8151,2.8152,2.8225,2.8142,2.8142,2.8142,2.8142,0,2.869,2.8683,2.8609,2.86,2.859,2.8533,2.8525,2.849,2.845,2.8432,2.8378,2.8362,2.8294,2.827,2.8229,2.8211,2.8202,2.8179,2.8168,2.8183,2.8186,2.817,2.8165,2.8143,2.8143,2.8143,2.8143,0,2.8765,2.8715,2.8695,2.8633,2.8618,2.8614,2.856,2.8548,2.851,2.8488,2.8479,2.8417,2.8387,2.8332,2.8285,2.8257,2.8248,2.8229,2.8264,2.8257,2.8274,2.8273,2.8337,2.8343,2.8259,2.8259,2.826,0,2.8798,2.8791,2.873,2.8715,2.8689,2.8666,2.8645,2.8589,2.8569,2.8518,2.8513,2.8479,2.8448,2.8401,2.8351,2.8315,2.8295,2.832,2.8289,2.8305,2.8294,2.8295,2.8294,2.8327,2.8328,2.8329,2.833,0,2.8861,2.8838,2.8811,2.8776,2.8754,2.8723,2.869,2.868,2.8616,2.8597,2.8566,2.8543,2.8496,2.8463,2.842,2.8389,2.8348,2.8341,2.8342,2.8357,2.8377,2.8366,2.8282,2.8339,2.8338,2.8337,2.8337,2.8336,2.8915,2.8907,2.8863,2.8836,2.8805,2.8776,2.8762,2.8723,2.8697,2.8656,2.8624,2.8596,2.8551,2.849,2.8462,2.8438,2.8419,2.8421,2.8421,2.8422,2.8428,2.8383,2.843,2.843,2.8429,2.8429,2.8429,0,2.8975,2.8945,2.892,2.8877,2.8855,2.8822,2.8784,2.8767,2.8744,2.8706,2.8678,2.8643,2.8611,2.856,2.8523,2.8514,2.8495,2.8507,2.8506,2.8499,2.8447,2.845,2.8523,2.8523,2.8523,2.8523,2.8523,2.8523,2.9004,2.8989,2.8961,2.893,2.8899,2.8873,2.8854,2.8826,2.8796,2.876,2.8734,2.8702,2.8659,2.8619,2.8588,2.8574,2.8562,2.858,2.856,2.8512,2.8503,2.8494,2.8496,2.8578,2.8578,2.8613,2.8613,2.8614]},{"header":{"parameterUnit":"m.s-1","parameterCategory":1,"la1":30.2991,"la2":30.254,"lo1":-89.0895,"lo2":-89.0444,"dy":0.0017,"dx":0.0017,"nx":28,"ny":28,"refTime":"2025-04-05T21:00:00:Z","depth":0,"parameterNumber":3,"parameterNumberName":"V-component_of_WINDS"},"data":[0,0,0,0,0,0,0,0,0,0,0,0,0,0,0,0,0,0,0,0,0,0,0,0,0,0,0,0,0,0,0,0,0,0,0,0,0,0,0,0,0,0,0,0,0,0,0,0,0,0,0,0,0,0,0,0,0,0,-5.6687,-5.6688,0,-5.6747,-5.6748,-5.6749,-5.6668,-5.6666,-5.6663,-5.666,-5.672,-5.6724,-5.6728,0,0,0,0,0,0,0,0,0,0,0,0,0,-5.6501,-5.6505,-5.6687,-5.6688,-5.6689,-5.6747,-5.6748,-5.6749,-5.6669,-5.6665,-5.6662,-5.6659,-5.6718,-5.6723,-5.6729,0,0,0,0,0,0,0,0,0,0,0,0,0,-5.6574,-5.6506,-5.6687,-5.6656,-5.6654,-5.6747,-5.6748,-5.6749,-5.667,-5.6665,-5.6661,-5.6657,-5.6717,-5.6723,-5.6729,-5.6856,0,0,-5.6749,-5.6752,0,0,0,0,0,0,0,0,-5.657,-5.6581,-5.666,-5.6658,-5.6656,-5.6696,-5.6704,-5.6785,-5.6671,-5.6664,-5.666,-5.6655,-5.6715,-5.6721,-5.6742,-5.6858,-5.6861,-5.6749,-5.6753,-5.6756,-5.6758,0,0,0,0,0,0,0,-5.6565,-5.6578,-5.6711,-5.6661,-5.6659,-5.6638,-5.6644,-5.6719,-5.6713,-5.6664,-5.6658,-5.6667,-5.6713,-5.6736,-5.6743,-5.6862,-5.6749,-5.6755,-5.6759,-5.6761,-5.7084,-5.7089,0,0,0,0,0,0,-5.6564,-5.6574,-5.6709,-5.6713,-5.6601,-5.6645,-5.6651,-5.6688,-5.6712,-5.6711,-5.667,-5.6663,-5.6727,-5.6736,-5.6745,-5.6894,-5.6756,-5.6762,-5.6766,-5.708,-5.7085,-5.709,0,0,0,0,0,0,-5.656,-5.6576,-5.6707,-5.6642,-5.6657,-5.6653,-5.6694,-5.6691,-5.6714,-5.6717,-5.6715,-5.6695,-5.6724,-5.6736,-5.6829,-5.6895,-5.6765,-5.6771,-5.7074,-5.7081,-5.7088,-5.7194,0,0,0,0,0,0,-5.6555,-5.6576,-5.6624,-5.6644,-5.6661,-5.679,-5.6698,-5.6695,-5.6725,-5.6716,-5.6739,-5.6739,-5.6722,-5.682,-5.6835,-5.6902,-5.6776,-5.7068,-5.7077,-5.7086,-5.7184,-5.7204,-5.722,0,0,0,0,0,-5.6549,-5.6651,-5.6627,-5.6644,-5.6721,-5.6794,-5.6804,-5.6783,-5.6731,-5.6779,-5.6781,-5.6738,-5.6886,-5.683,-5.6847,-5.6916,-5.7064,-5.7075,-5.7085,-5.7176,-5.72,-5.722,0,0,0,0,0,0,-5.6639,-5.6653,-5.6626,-5.6738,-5.6766,-5.6781,-5.6841,-5.6808,-5.685,-5.684,-5.6811,-5.6817,-5.6916,-5.6925,-5.6863,-5.7039,-5.6966,-5.698,-5.703,-5.7052,-5.707,-5.7065,-5.6781,0,0,0,0,0,-5.6672,-5.6731,-5.674,-5.6838,-5.6853,-5.6845,-5.6876,-5.6857,-5.6884,-5.6895,-5.6904,-5.6931,-5.6983,-5.7018,-5.7066,-5.7186,-5.7189,-5.7242,-5.7259,-5.7274,-5.7287,-5.735,-5.7374,-5.7125,-5.7125,-5.7125,0,0,-5.674,-5.6755,-5.6794,-5.6856,-5.6875,-5.6936,-5.6855,-5.6923,-5.6968,-5.6905,-5.6993,-5.7001,-5.7029,-5.7136,-5.7183,-5.7147,-5.7356,-5.7288,-5.7299,-5.7304,-5.7364,-5.7387,-5.7408,-5.7132,-5.7131,-5.713,0,0,-5.6896,-5.6914,-5.6997,-5.7019,-5.7049,-5.7043,-5.7063,-5.7083,-5.7086,-5.7174,-5.7128,-5.7181,-5.7272,-5.7294,-5.7317,-5.7482,-5.7444,-5.7499,-5.7592,-5.7654,-5.7674,-5.7691,-5.775,-5.7771,-5.7512,-5.7512,-5.7512,0,-5.6978,-5.7068,-5.7044,-5.7116,-5.7144,-5.7091,-5.7175,-5.7196,-5.7241,-5.7261,-5.722,-5.7333,-5.7348,-5.7459,-5.75,-5.752,-5.7542,-5.7496,-5.7673,-5.769,-5.7706,-5.7761,-5.7784,-5.7518,-5.7518,-5.7517,-5.7516,0,-5.7166,-5.723,-5.7294,-5.7339,-5.7374,-5.7452,-5.7439,-5.7478,-5.7456,-5.7455,-5.7545,-5.7562,-5.7613,-5.7638,-5.7617,-5.7746,-5.7722,-5.7678,-5.7603,-5.7736,-5.7788,-5.7809,-5.7527,-5.7525,-5.7523,-5.7522,0,0,-5.738,-5.7412,-5.7435,-5.7455,-5.7485,-5.7533,-5.7608,-5.7658,-5.7692,-5.7725,-5.7786,-5.7865,-5.7824,-5.785,-5.7831,-5.7886,-5.8016,-5.7834,-5.7834,-5.7867,-5.8158,-5.8192,-5.8217,-5.7991,-5.7995,-5.7998,-5.8156,0,-5.7536,-5.7666,-5.7647,-5.7772,-5.7831,-5.7781,-5.7847,-5.7872,-5.7872,-5.7921,-5.7921,-5.7977,-5.7919,-5.7935,-5.7987,-5.7989,-5.8073,-5.7977,-5.8047,-5.805,-5.8041,-5.8244,-5.8279,-5.8427,-5.8176,-5.8179,-5.8182,0,-5.7735,-5.7776,-5.7907,-5.7928,-5.7951,-5.8011,-5.8055,-5.8103,-5.813,-5.8127,-5.8157,-5.8128,-5.8202,-5.8127,-5.8229,-5.8164,-5.8192,-5.8197,-5.8202,-5.8207,-5.8124,-5.8254,-5.8474,-5.8496,-5.8213,-5.8211,-5.8209,0,-5.7878,-5.7965,-5.8055,-5.8073,-5.81,-5.8142,-5.8155,-5.8178,-5.821,-5.8249,-5.8269,-5.8316,-5.8341,-5.8378,-5.8363,-5.831,-5.8467,-5.8391,-5.8466,-5.8467,-5.8501,-5.8499,-5.8728,-5.852,-5.852,-5.8519,-5.8519,0,-5.8053,-5.8136,-5.8119,-5.8175,-5.8265,-5.8242,-5.8332,-5.8339,-5.836,-5.8415,-5.8375,-5.8428,-5.8405,-5.8456,-5.8444,-5.853,-5.8542,-5.8541,-5.8537,-5.8544,-5.8544,-5.8561,-5.855,-5.8525,-5.8524,-5.8523,-5.8522,0,-5.8228,-5.822,-5.8315,-5.8332,-5.8339,-5.8405,-5.8419,-5.8471,-5.8468,-5.8539,-5.8554,-5.855,-5.8608,-5.8597,-5.8661,-5.8653,-5.876,-5.8744,-5.8751,-5.8747,-5.8823,-5.8816,-5.907,-5.9103,-5.8874,-5.8876,-5.8878,0,-5.834,-5.8402,-5.8427,-5.8461,-5.8478,-5.8534,-5.8566,-5.8546,-5.8581,-5.8617,-5.8664,-5.8718,-5.8761,-5.8856,-5.8858,-5.8907,-5.889,-5.8976,-5.8897,-5.8903,-5.8891,-5.8888,-5.8893,-5.8992,-5.8994,-5.8997,-5.8998,0,-5.854,-5.8534,-5.8582,-5.863,-5.8669,-5.8705,-5.8737,-5.8768,-5.875,-5.8792,-5.8851,-5.8884,-5.8949,-5.9004,-5.9049,-5.9061,-5.9027,-5.9023,-5.9043,-5.9051,-5.9053,-5.9053,-5.8794,-5.9017,-5.9015,-5.9014,-5.9013,-5.9012,-5.8687,-5.874,-5.8765,-5.8821,-5.8843,-5.8874,-5.8923,-5.8927,-5.8977,-5.9029,-5.9013,-5.9081,-5.9106,-5.9163,-5.9181,-5.9233,-5.9201,-5.9229,-5.9237,-5.9244,-5.9253,-5.9046,-5.9241,-5.924,-5.924,-5.9239,-5.9239,0,-5.8885,-5.8899,-5.895,-5.8996,-5.904,-5.9005,-5.9039,-5.9077,-5.9137,-5.9164,-5.9207,-5.9275,-5.9327,-5.9335,-5.9384,-5.9424,-5.941,-5.9438,-5.9435,-5.9438,-5.9279,-5.9257,-5.9449,-5.9449,-5.9449,-5.9449,-5.9449,-5.9449,-5.8993,-5.908,-5.9077,-5.9175,-5.9188,-5.9254,-5.9277,-5.9305,-5.9326,-5.9404,-5.9448,-5.9453,-5.9472,-5.9522,-5.9569,-5.957,-5.959,-5.9624,-5.9619,-5.947,-5.9449,-5.9429,-5.9408,-5.9629,-5.9629,-5.9773,-5.9774,-5.9775]}]]